User: anonymous   Login
Location: PACMO
(41.3967°N, 90.3760°W)
Time: 14:25:45
(UTC-05:00)
Language:

BREEZE-M DEB (TANK) - Orbit

View from above orbital plane
View from above orbital plane
View from above satellite
View from above satellite

Ground track
Ground track

The orbit data is extracted from the following two-line orbital elements,

1 31863U 07032B   17263.85895052  .00000041  00000-0  91875-4 0  9993
2 31863  45.9155 247.3553 4976430  99.5162 317.8756  5.52112469204813
Epoch (UTC): 20 September 2017 20:36:53
Eccentricity: 0.4976430
inclination: 45.9155°
perigee height: 415 km
apogee height: 13873 km
right ascension of ascending node: 247.3553°
argument of perigee: 99.5162°
revolutions per day: 5.52112469
mean anomaly at epoch: 317.8756°
orbit number at epoch: 20481

The dashed part of the orbit path shows where the satellite is in the earth's shadow,  

DLR